owner,sensor,date,latitude,longitude,vertical_datum,wind_speed,wind_to_direction,wind_speed_of_gust,qcFlag 
WAVCIS,ioos:station:WAVCIS:CSI15:1,2011-06-01T00:00:00Z,28.8332,-90.8320,10.0,3.649,67.0,,'11111222,11111222,99999999' 
WAVCIS,ioos:station:WAVCIS:CSI15:1,2011-06-01T01:00:00Z,28.8332,-90.8320,10.0,4.181,87.0,,'11111222,11111222,99999999' 
WAVCIS,ioos:station:WAVCIS:CSI15:1,2011-06-01T02:00:00Z,28.8332,-90.8320,10.0,4.53,87.0,,'11111222,11111222,99999999' 
WAVCIS,ioos:station:WAVCIS:CSI15:1,2011-06-01T03:00:00Z,28.8332,-90.8320,10.0,4.592,89.0,,'11111222,11111222,99999999' 
WAVCIS,ioos:station:WAVCIS:CSI15:1,2011-06-01T04:00:00Z,28.8332,-90.8320,10.0,3.136,93.0,,'11111222,11111222,99999999' 
WAVCIS,ioos:station:WAVCIS:CSI15:1,2011-06-01T05:00:00Z,28.8332,-90.8320,10.0,2.878,85.0,,'11111222,11111222,99999999' 
WAVCIS,ioos:station:WAVCIS:CSI15:1,2011-06-01T06:00:00Z,28.8332,-90.8320,10.0,2.679,81.0,,'11111222,11111222,99999999' 
WAVCIS,ioos:station:WAVCIS:CSI15:1,2011-06-01T07:00:00Z,28.8332,-90.8320,10.0,1.667,80.0,,'11111222,11111222,99999999' 
WAVCIS,ioos:station:WAVCIS:CSI15:1,2011-06-01T08:00:00Z,28.8332,-90.8320,10.0,1.772,72.0,,'11111222,11111222,99999999' 
WAVCIS,ioos:station:WAVCIS:CSI15:1,2011-06-01T09:00:00Z,28.8332,-90.8320,10.0,1.58,50.0,,'11111222,11111222,99999999' 
WAVCIS,ioos:station:WAVCIS:CSI15:1,2011-06-01T10:00:00Z,28.8332,-90.8320,10.0,1.996,19.0,,'11111222,11111222,99999999' 
WAVCIS,ioos:station:WAVCIS:CSI15:1,2011-06-01T11:00:00Z,28.8332,-90.8320,10.0,2.654,359.0,,'11111222,11111222,99999999' 
WAVCIS,ioos:station:WAVCIS:CSI15:1,2011-06-01T12:00:00Z,28.8332,-90.8320,10.0,7.35,331.0,,'11111222,11111222,99999999' 
WAVCIS,ioos:station:WAVCIS:CSI15:1,2011-06-01T13:00:00Z,28.8332,-90.8320,10.0,7.34,332.0,,'11111222,11111222,99999999' 
WAVCIS,ioos:station:WAVCIS:CSI15:1,2011-06-01T14:00:00Z,28.8332,-90.8320,10.0,7.24,331.0,,'11111222,11111222,99999999' 
WAVCIS,ioos:station:WAVCIS:CSI15:1,2011-06-01T15:00:00Z,28.8332,-90.8320,10.0,6.399,337.0,,'11111222,11111222,99999999' 
WAVCIS,ioos:station:WAVCIS:CSI15:1,2011-06-01T16:00:00Z,28.8332,-90.8320,10.0,5.698,345.0,,'11111222,11111222,99999999' 
WAVCIS,ioos:station:WAVCIS:CSI15:1,2011-06-01T17:00:00Z,28.8332,-90.8320,10.0,4.964,359.0,,'11111222,11111222,99999999' 
WAVCIS,ioos:station:WAVCIS:CSI15:1,2011-06-01T18:00:00Z,28.8332,-90.8320,10.0,5.35,20.0,,'11111222,11111222,99999999' 
WAVCIS,ioos:station:WAVCIS:CSI15:1,2011-06-01T19:00:00Z,28.8332,-90.8320,10.0,3.336,28.0,,'11111222,11111222,99999999' 
WAVCIS,ioos:station:WAVCIS:CSI15:1,2011-06-01T20:00:00Z,28.8332,-90.8320,10.0,2.658,23.0,,'11111222,11111222,99999999' 
WAVCIS,ioos:station:WAVCIS:CSI15:1,2011-06-01T21:00:00Z,28.8332,-90.8320,10.0,1.753,14.0,,'11111222,11111222,99999999' 
WAVCIS,ioos:station:WAVCIS:CSI15:1,2011-06-01T22:00:00Z,28.8332,-90.8320,10.0,0.915,93.0,,'11111222,11111222,99999999' 
WAVCIS,ioos:station:WAVCIS:CSI15:1,2011-06-01T23:00:00Z,28.8332,-90.8320,10.0,1.279,140.0,,'11111222,11111222,99999999' 
WAVCIS,ioos:station:WAVCIS:CSI15:1,2011-06-02T00:00:00Z,28.8332,-90.8320,10.0,1.194,190.0,,'11111222,11111222,99999999' 
WAVCIS,ioos:station:WAVCIS:CSI15:1,2011-06-02T01:00:00Z,28.8332,-90.8320,10.0,2.463,197.0,,'11111222,11111222,99999999' 
WAVCIS,ioos:station:WAVCIS:CSI15:1,2011-06-02T02:00:00Z,28.8332,-90.8320,10.0,3.185,220.0,,'11111222,11111222,99999999' 
WAVCIS,ioos:station:WAVCIS:CSI15:1,2011-06-02T03:00:00Z,28.8332,-90.8320,10.0,3.895,239.0,,'11111222,11111222,99999999' 
WAVCIS,ioos:station:WAVCIS:CSI15:1,2011-06-02T04:00:00Z,28.8332,-90.8320,10.0,4.053,250.0,,'11111222,11111222,99999999' 
WAVCIS,ioos:station:WAVCIS:CSI15:1,2011-06-02T05:00:00Z,28.8332,-90.8320,10.0,4.982,268.0,,'11111222,11111222,99999999' 
WAVCIS,ioos:station:WAVCIS:CSI15:1,2011-06-02T06:00:00Z,28.8332,-90.8320,10.0,5.596,271.0,,'11111222,11111222,99999999' 
WAVCIS,ioos:station:WAVCIS:CSI15:1,2011-06-02T07:00:00Z,28.8332,-90.8320,10.0,5.86,268.0,,'11111222,11111222,99999999' 
WAVCIS,ioos:station:WAVCIS:CSI15:1,2011-06-02T08:00:00Z,28.8332,-90.8320,10.0,7.72,280.0,,'11111222,11111222,99999999' 
WAVCIS,ioos:station:WAVCIS:CSI15:1,2011-06-02T09:00:00Z,28.8332,-90.8320,10.0,8.98,293.0,,'11111222,11111222,99999999' 
WAVCIS,ioos:station:WAVCIS:CSI15:1,2011-06-02T10:00:00Z,28.8332,-90.8320,10.0,9.03,301.0,,'11111222,11111222,99999999' 
WAVCIS,ioos:station:WAVCIS:CSI15:1,2011-06-02T11:00:00Z,28.8332,-90.8320,10.0,5.757,215.0,,'11111222,11111222,99999999' 
WAVCIS,ioos:station:WAVCIS:CSI15:1,2011-06-02T12:00:00Z,28.8332,-90.8320,10.0,7.39,242.0,,'11111222,11111222,99999999' 
WAVCIS,ioos:station:WAVCIS:CSI15:1,2011-06-02T13:00:00Z,28.8332,-90.8320,10.0,8.58,261.0,,'11111222,11111222,99999999' 
WAVCIS,ioos:station:WAVCIS:CSI15:1,2011-06-02T14:00:00Z,28.8332,-90.8320,10.0,10.12,263.0,,'11111222,11111222,99999999' 
WAVCIS,ioos:station:WAVCIS:CSI15:1,2011-06-02T15:00:00Z,28.8332,-90.8320,10.0,8.55,284.0,,'11111222,11111222,99999999' 
WAVCIS,ioos:station:WAVCIS:CSI15:1,2011-06-02T16:00:00Z,28.8332,-90.8320,10.0,5.371,12.0,,'11111222,11111222,99999999' 
WAVCIS,ioos:station:WAVCIS:CSI15:1,2011-06-02T17:00:00Z,28.8332,-90.8320,10.0,5.687,22.0,,'11111222,11111222,99999999' 
WAVCIS,ioos:station:WAVCIS:CSI15:1,2011-06-02T18:00:00Z,28.8332,-90.8320,10.0,4.562,17.0,,'11111222,11111222,99999999' 
WAVCIS,ioos:station:WAVCIS:CSI15:1,2011-06-02T19:00:00Z,28.8332,-90.8320,10.0,8.88,62.0,,'11111222,11111222,99999999' 
WAVCIS,ioos:station:WAVCIS:CSI15:1,2011-06-02T20:00:00Z,28.8332,-90.8320,10.0,10.88,93.0,,'11111222,11111222,99999999' 
WAVCIS,ioos:station:WAVCIS:CSI15:1,2011-06-02T21:00:00Z,28.8332,-90.8320,10.0,10.49,93.0,,'11111222,11111222,99999999' 
WAVCIS,ioos:station:WAVCIS:CSI15:1,2011-06-02T22:00:00Z,28.8332,-90.8320,10.0,8.72,101.0,,'11111222,11111222,99999999' 
WAVCIS,ioos:station:WAVCIS:CSI15:1,2011-06-02T23:00:00Z,28.8332,-90.8320,10.0,8.2,96.0,,'11111222,11111222,99999999' 
WAVCIS,ioos:station:WAVCIS:CSI15:1,2011-06-03T00:00:00Z,28.8332,-90.8320,10.0,7.93,93.0,,'11111222,11111222,99999999' 
WAVCIS,ioos:station:WAVCIS:CSI15:1,2011-06-03T01:00:00Z,28.8332,-90.8320,10.0,8.09,87.0,,'11111222,11111222,99999999' 
WAVCIS,ioos:station:WAVCIS:CSI15:1,2011-06-03T02:00:00Z,28.8332,-90.8320,10.0,8.55,101.0,,'11111222,11111222,99999999' 
WAVCIS,ioos:station:WAVCIS:CSI15:1,2011-06-03T03:00:00Z,28.8332,-90.8320,10.0,7.43,100.0,,'11111222,11111222,99999999' 
WAVCIS,ioos:station:WAVCIS:CSI15:1,2011-06-03T04:00:00Z,28.8332,-90.8320,10.0,5.921,104.0,,'11111222,11111222,99999999' 
WAVCIS,ioos:station:WAVCIS:CSI15:1,2011-06-03T05:00:00Z,28.8332,-90.8320,10.0,5.566,102.0,,'11111222,11111222,99999999' 
WAVCIS,ioos:station:WAVCIS:CSI15:1,2011-06-03T06:00:00Z,28.8332,-90.8320,10.0,5.989,116.0,,'11111222,11111222,99999999' 
WAVCIS,ioos:station:WAVCIS:CSI15:1,2011-06-03T07:00:00Z,28.8332,-90.8320,10.0,5.896,117.0,,'11111222,11111222,99999999' 
WAVCIS,ioos:station:WAVCIS:CSI15:1,2011-06-03T08:00:00Z,28.8332,-90.8320,10.0,5.388,102.0,,'11111222,11111222,99999999' 
WAVCIS,ioos:station:WAVCIS:CSI15:1,2011-06-03T09:00:00Z,28.8332,-90.8320,10.0,4.822,103.0,,'11111222,11111222,99999999' 
WAVCIS,ioos:station:WAVCIS:CSI15:1,2011-06-03T10:00:00Z,28.8332,-90.8320,10.0,3.647,113.0,,'11111222,11111222,99999999' 
WAVCIS,ioos:station:WAVCIS:CSI15:1,2011-06-03T11:00:00Z,28.8332,-90.8320,10.0,2.431,99.0,,'11111222,11111222,99999999' 
WAVCIS,ioos:station:WAVCIS:CSI15:1,2011-06-03T12:00:00Z,28.8332,-90.8320,10.0,3.079,99.0,,'11111222,11111222,99999999' 
WAVCIS,ioos:station:WAVCIS:CSI15:1,2011-06-03T13:00:00Z,28.8332,-90.8320,10.0,3.451,97.0,,'11111222,11111222,99999999' 
WAVCIS,ioos:station:WAVCIS:CSI15:1,2011-06-03T14:00:00Z,28.8332,-90.8320,10.0,3.664,63.0,,'11111222,11111222,99999999' 
WAVCIS,ioos:station:WAVCIS:CSI15:1,2011-06-03T15:00:00Z,28.8332,-90.8320,10.0,5.965,64.0,,'11111222,11111222,99999999' 
WAVCIS,ioos:station:WAVCIS:CSI15:1,2011-06-03T16:00:00Z,28.8332,-90.8320,10.0,4.663,77.0,,'11111222,11111222,99999999' 
WAVCIS,ioos:station:WAVCIS:CSI15:1,2011-06-03T17:00:00Z,28.8332,-90.8320,10.0,4.309,75.0,,'11111222,11111222,99999999' 
WAVCIS,ioos:station:WAVCIS:CSI15:1,2011-06-03T18:00:00Z,28.8332,-90.8320,10.0,4.338,79.0,,'11111222,11111222,99999999' 
WAVCIS,ioos:station:WAVCIS:CSI15:1,2011-06-03T19:00:00Z,28.8332,-90.8320,10.0,5.169,63.0,,'11111222,11111222,99999999' 
WAVCIS,ioos:station:WAVCIS:CSI15:1,2011-06-03T20:00:00Z,28.8332,-90.8320,10.0,4.323,70.0,,'11111222,11111222,99999999' 
WAVCIS,ioos:station:WAVCIS:CSI15:1,2011-06-03T21:00:00Z,28.8332,-90.8320,10.0,4.884,63.0,,'11111222,11111222,99999999' 
WAVCIS,ioos:station:WAVCIS:CSI15:1,2011-06-03T22:00:00Z,28.8332,-90.8320,10.0,5.698,82.0,,'11111222,11111222,99999999' 
WAVCIS,ioos:station:WAVCIS:CSI15:1,2011-06-03T23:00:00Z,28.8332,-90.8320,10.0,6.232,75.0,,'11111222,11111222,99999999' 
WAVCIS,ioos:station:WAVCIS:CSI15:1,2011-06-04T00:00:00Z,28.8332,-90.8320,10.0,6.136,87.0,,'11111222,11111222,99999999' 
WAVCIS,ioos:station:WAVCIS:CSI15:1,2011-06-04T01:00:00Z,28.8332,-90.8320,10.0,5.867,91.0,,'11111222,11111222,99999999' 
WAVCIS,ioos:station:WAVCIS:CSI15:1,2011-06-04T02:00:00Z,28.8332,-90.8320,10.0,5.574,84.0,,'11111222,11111222,99999999' 
WAVCIS,ioos:station:WAVCIS:CSI15:1,2011-06-04T03:00:00Z,28.8332,-90.8320,10.0,4.996,102.0,,'11111222,11111222,99999999' 
WAVCIS,ioos:station:WAVCIS:CSI15:1,2011-06-04T04:00:00Z,28.8332,-90.8320,10.0,4.809,102.0,,'11111222,11111222,99999999' 
WAVCIS,ioos:station:WAVCIS:CSI15:1,2011-06-04T05:00:00Z,28.8332,-90.8320,10.0,3.969,107.0,,'11111222,11111222,99999999' 
WAVCIS,ioos:station:WAVCIS:CSI15:1,2011-06-04T06:00:00Z,28.8332,-90.8320,10.0,3.853,136.0,,'11111222,11111222,99999999' 
WAVCIS,ioos:station:WAVCIS:CSI15:1,2011-06-04T07:00:00Z,28.8332,-90.8320,10.0,2.868,132.0,,'11111222,11111222,99999999' 
WAVCIS,ioos:station:WAVCIS:CSI15:1,2011-06-04T08:00:00Z,28.8332,-90.8320,10.0,1.8,149.0,,'11111222,11111222,99999999' 
WAVCIS,ioos:station:WAVCIS:CSI15:1,2011-06-04T09:00:00Z,28.8332,-90.8320,10.0,1.242,91.0,,'11111222,11111222,99999999' 
WAVCIS,ioos:station:WAVCIS:CSI15:1,2011-06-04T10:00:00Z,28.8332,-90.8320,10.0,2.402,23.0,,'11111222,11111222,99999999' 
WAVCIS,ioos:station:WAVCIS:CSI15:1,2011-06-04T11:00:00Z,28.8332,-90.8320,10.0,2.307,64.0,,'11111222,11111222,99999999' 
WAVCIS,ioos:station:WAVCIS:CSI15:1,2011-06-04T12:00:00Z,28.8332,-90.8320,10.0,3.167,33.0,,'11111222,11111222,99999999' 
WAVCIS,ioos:station:WAVCIS:CSI15:1,2011-06-04T13:00:00Z,28.8332,-90.8320,10.0,3.86,21.0,,'11111222,11111222,99999999' 
WAVCIS,ioos:station:WAVCIS:CSI15:1,2011-06-04T14:00:00Z,28.8332,-90.8320,10.0,5.551,5.0,,'11111222,11111222,99999999' 
WAVCIS,ioos:station:WAVCIS:CSI15:1,2011-06-04T15:00:00Z,28.8332,-90.8320,10.0,4.599,8.0,,'11111222,11111222,99999999' 
WAVCIS,ioos:station:WAVCIS:CSI15:1,2011-06-04T16:00:00Z,28.8332,-90.8320,10.0,4.325,22.0,,'11111222,11111222,99999999' 
WAVCIS,ioos:station:WAVCIS:CSI15:1,2011-06-04T17:00:00Z,28.8332,-90.8320,10.0,3.588,30.0,,'11111222,11111222,99999999' 
WAVCIS,ioos:station:WAVCIS:CSI15:1,2011-06-04T18:00:00Z,28.8332,-90.8320,10.0,1.831,32.0,,'11111222,11111222,99999999' 
WAVCIS,ioos:station:WAVCIS:CSI15:1,2011-06-04T19:00:00Z,28.8332,-90.8320,10.0,1.866,35.0,,'11111222,11111222,99999999' 
WAVCIS,ioos:station:WAVCIS:CSI15:1,2011-06-04T20:00:00Z,28.8332,-90.8320,10.0,1.347,52.0,,'11111222,11111222,99999999' 
WAVCIS,ioos:station:WAVCIS:CSI15:1,2011-06-04T21:00:00Z,28.8332,-90.8320,10.0,0.985,63.0,,'11111222,11111222,99999999' 
WAVCIS,ioos:station:WAVCIS:CSI15:1,2011-06-04T22:00:00Z,28.8332,-90.8320,10.0,2.966,138.0,,'11111222,11111222,99999999' 
WAVCIS,ioos:station:WAVCIS:CSI15:1,2011-06-04T23:00:00Z,28.8332,-90.8320,10.0,2.364,173.0,,'11111222,11111222,99999999' 
WAVCIS,ioos:station:WAVCIS:CSI15:1,2011-06-05T00:00:00Z,28.8332,-90.8320,10.0,3.332,201.0,,'11111222,11111222,99999999' 
WAVCIS,ioos:station:WAVCIS:CSI15:1,2011-06-05T01:00:00Z,28.8332,-90.8320,10.0,3.369,199.0,,'11111222,11111222,99999999' 
WAVCIS,ioos:station:WAVCIS:CSI15:1,2011-06-05T02:00:00Z,28.8332,-90.8320,10.0,4.771,242.0,,'11111222,11111222,99999999' 
WAVCIS,ioos:station:WAVCIS:CSI15:1,2011-06-05T03:00:00Z,28.8332,-90.8320,10.0,4.136,249.0,,'11111222,11111222,99999999' 
WAVCIS,ioos:station:WAVCIS:CSI15:1,2011-06-05T04:00:00Z,28.8332,-90.8320,10.0,4.125,240.0,,'11111222,11111222,99999999' 
WAVCIS,ioos:station:WAVCIS:CSI15:1,2011-06-05T05:00:00Z,28.8332,-90.8320,10.0,4.288,250.0,,'11111222,11111222,99999999' 
WAVCIS,ioos:station:WAVCIS:CSI15:1,2011-06-05T06:00:00Z,28.8332,-90.8320,10.0,4.309,236.0,,'11111222,11111222,99999999' 
WAVCIS,ioos:station:WAVCIS:CSI15:1,2011-06-05T07:00:00Z,28.8332,-90.8320,10.0,4.51,244.0,,'11111222,11111222,99999999' 
WAVCIS,ioos:station:WAVCIS:CSI15:1,2011-06-05T08:00:00Z,28.8332,-90.8320,10.0,4.481,239.0,,'11111222,11111222,99999999' 
WAVCIS,ioos:station:WAVCIS:CSI15:1,2011-06-05T09:00:00Z,28.8332,-90.8320,10.0,5.422,235.0,,'11111222,11111222,99999999' 
WAVCIS,ioos:station:WAVCIS:CSI15:1,2011-06-05T10:00:00Z,28.8332,-90.8320,10.0,8.18,277.0,,'11111222,11111222,99999999' 
WAVCIS,ioos:station:WAVCIS:CSI15:1,2011-06-05T11:00:00Z,28.8332,-90.8320,10.0,8.48,282.0,,'11111222,11111222,99999999' 
WAVCIS,ioos:station:WAVCIS:CSI15:1,2011-06-05T12:00:00Z,28.8332,-90.8320,10.0,8.11,301.0,,'11111222,11111222,99999999' 
WAVCIS,ioos:station:WAVCIS:CSI15:1,2011-06-05T13:00:00Z,28.8332,-90.8320,10.0,5.559,298.0,,'11111222,11111222,99999999' 
WAVCIS,ioos:station:WAVCIS:CSI15:1,2011-06-05T14:00:00Z,28.8332,-90.8320,10.0,3.679,339.0,,'11111222,11111222,99999999' 
WAVCIS,ioos:station:WAVCIS:CSI15:1,2011-06-05T15:00:00Z,28.8332,-90.8320,10.0,2.292,299.0,,'11111222,11111222,99999999' 
WAVCIS,ioos:station:WAVCIS:CSI15:1,2011-06-05T16:00:00Z,28.8332,-90.8320,10.0,2.36,299.0,,'11111222,11111222,99999999' 
WAVCIS,ioos:station:WAVCIS:CSI15:1,2011-06-05T17:00:00Z,28.8332,-90.8320,10.0,2.897,30.0,,'11111222,11111222,99999999' 
WAVCIS,ioos:station:WAVCIS:CSI15:1,2011-06-05T18:00:00Z,28.8332,-90.8320,10.0,5.172,50.0,,'11111222,11111222,99999999' 
WAVCIS,ioos:station:WAVCIS:CSI15:1,2011-06-05T19:00:00Z,28.8332,-90.8320,10.0,9.31,58.0,,'11111222,11111222,99999999' 
WAVCIS,ioos:station:WAVCIS:CSI15:1,2011-06-05T20:00:00Z,28.8332,-90.8320,10.0,3.72,19.0,,'11111222,11111222,99999999' 
WAVCIS,ioos:station:WAVCIS:CSI15:1,2011-06-05T21:00:00Z,28.8332,-90.8320,10.0,4.616,80.0,,'11111222,11111222,99999999' 
WAVCIS,ioos:station:WAVCIS:CSI15:1,2011-06-05T22:00:00Z,28.8332,-90.8320,10.0,2.001,70.0,,'11111222,11111222,99999999' 
WAVCIS,ioos:station:WAVCIS:CSI15:1,2011-06-05T23:00:00Z,28.8332,-90.8320,10.0,3.079,81.0,,'11111222,11111222,99999999' 
WAVCIS,ioos:station:WAVCIS:CSI15:1,2011-06-06T00:00:00Z,28.8332,-90.8320,10.0,3.221,101.0,,'11111222,11111222,99999999' 
WAVCIS,ioos:station:WAVCIS:CSI15:1,2011-06-06T01:00:00Z,28.8332,-90.8320,10.0,3.491,111.0,,'11111222,11111222,99999999' 
WAVCIS,ioos:station:WAVCIS:CSI15:1,2011-06-06T02:00:00Z,28.8332,-90.8320,10.0,4.346,114.0,,'11111222,11111222,99999999' 
WAVCIS,ioos:station:WAVCIS:CSI15:1,2011-06-06T03:00:00Z,28.8332,-90.8320,10.0,3.269,130.0,,'11111222,11111222,99999999' 
WAVCIS,ioos:station:WAVCIS:CSI15:1,2011-06-06T04:00:00Z,28.8332,-90.8320,10.0,3.493,158.0,,'11111222,11111222,99999999' 
WAVCIS,ioos:station:WAVCIS:CSI15:1,2011-06-06T05:00:00Z,28.8332,-90.8320,10.0,2.879,152.0,,'11111222,11111222,99999999' 
WAVCIS,ioos:station:WAVCIS:CSI15:1,2011-06-06T06:00:00Z,28.8332,-90.8320,10.0,3.397,151.0,,'11111222,11111222,99999999' 
WAVCIS,ioos:station:WAVCIS:CSI15:1,2011-06-06T07:00:00Z,28.8332,-90.8320,10.0,3.323,170.0,,'11111222,11111222,99999999' 
WAVCIS,ioos:station:WAVCIS:CSI15:1,2011-06-06T08:00:00Z,28.8332,-90.8320,10.0,2.489,195.0,,'11111222,11111222,99999999' 
WAVCIS,ioos:station:WAVCIS:CSI15:1,2011-06-06T09:00:00Z,28.8332,-90.8320,10.0,3.297,185.0,,'11111222,11111222,99999999' 
WAVCIS,ioos:station:WAVCIS:CSI15:1,2011-06-06T10:00:00Z,28.8332,-90.8320,10.0,2.35,161.0,,'11111222,11111222,99999999' 
WAVCIS,ioos:station:WAVCIS:CSI15:1,2011-06-06T11:00:00Z,28.8332,-90.8320,10.0,1.952,175.0,,'11111222,11111222,99999999' 
WAVCIS,ioos:station:WAVCIS:CSI15:1,2011-06-06T12:00:00Z,28.8332,-90.8320,10.0,2.021,157.0,,'11111222,11111222,99999999' 
WAVCIS,ioos:station:WAVCIS:CSI15:1,2011-06-06T13:00:00Z,28.8332,-90.8320,10.0,1.345,166.0,,'11111222,11111222,99999999' 
WAVCIS,ioos:station:WAVCIS:CSI15:1,2011-06-06T14:00:00Z,28.8332,-90.8320,10.0,2.122,156.0,,'11111222,11111222,99999999' 
WAVCIS,ioos:station:WAVCIS:CSI15:1,2011-06-06T15:00:00Z,28.8332,-90.8320,10.0,1.405,157.0,,'11111222,11111222,99999999' 
WAVCIS,ioos:station:WAVCIS:CSI15:1,2011-06-06T16:00:00Z,28.8332,-90.8320,10.0,2.282,156.0,,'11111222,11111222,99999999' 
WAVCIS,ioos:station:WAVCIS:CSI15:1,2011-06-06T17:00:00Z,28.8332,-90.8320,10.0,2.803,135.0,,'11111222,11111222,99999999' 
WAVCIS,ioos:station:WAVCIS:CSI15:1,2011-06-06T18:00:00Z,28.8332,-90.8320,10.0,3.536,147.0,,'11111222,11111222,99999999' 
WAVCIS,ioos:station:WAVCIS:CSI15:1,2011-06-06T19:00:00Z,28.8332,-90.8320,10.0,3.401,155.0,,'11111222,11111222,99999999' 
WAVCIS,ioos:station:WAVCIS:CSI15:1,2011-06-06T20:00:00Z,28.8332,-90.8320,10.0,5.037,158.0,,'11111222,11111222,99999999' 
WAVCIS,ioos:station:WAVCIS:CSI15:1,2011-06-06T21:00:00Z,28.8332,-90.8320,10.0,5.782,162.0,,'11111222,11111222,99999999' 
WAVCIS,ioos:station:WAVCIS:CSI15:1,2011-06-06T22:00:00Z,28.8332,-90.8320,10.0,4.448,169.0,,'11111222,11111222,99999999' 
WAVCIS,ioos:station:WAVCIS:CSI15:1,2011-06-06T23:00:00Z,28.8332,-90.8320,10.0,2.344,205.0,,'11111222,11111222,99999999' 
WAVCIS,ioos:station:WAVCIS:CSI15:1,2011-06-07T00:00:00Z,28.8332,-90.8320,10.0,1.741,269.0,,'11111222,11111222,99999999' 
WAVCIS,ioos:station:WAVCIS:CSI15:1,2011-06-07T01:00:00Z,28.8332,-90.8320,10.0,2.368,280.0,,'11111222,11111222,99999999' 
WAVCIS,ioos:station:WAVCIS:CSI15:1,2011-06-07T02:00:00Z,28.8332,-90.8320,10.0,2.772,322.0,,'11111222,11111222,99999999' 
WAVCIS,ioos:station:WAVCIS:CSI15:1,2011-06-07T03:00:00Z,28.8332,-90.8320,10.0,2.075,28.0,,'11111222,11111222,99999999' 
WAVCIS,ioos:station:WAVCIS:CSI15:1,2011-06-07T04:00:00Z,28.8332,-90.8320,10.0,2.377,181.0,,'11111222,11111222,99999999' 
WAVCIS,ioos:station:WAVCIS:CSI15:1,2011-06-07T05:00:00Z,28.8332,-90.8320,10.0,3.572,173.0,,'11111222,11111222,99999999' 
WAVCIS,ioos:station:WAVCIS:CSI15:1,2011-06-07T06:00:00Z,28.8332,-90.8320,10.0,2.653,173.0,,'11111222,11111222,99999999' 
WAVCIS,ioos:station:WAVCIS:CSI15:1,2011-06-07T07:00:00Z,28.8332,-90.8320,10.0,4.098,160.0,,'11111222,11111222,99999999' 
WAVCIS,ioos:station:WAVCIS:CSI15:1,2011-06-07T08:00:00Z,28.8332,-90.8320,10.0,5.002,162.0,,'11111222,11111222,99999999' 
WAVCIS,ioos:station:WAVCIS:CSI15:1,2011-06-07T09:00:00Z,28.8332,-90.8320,10.0,4.771,171.0,,'11111222,11111222,99999999' 
WAVCIS,ioos:station:WAVCIS:CSI15:1,2011-06-07T10:00:00Z,28.8332,-90.8320,10.0,3.698,168.0,,'11111222,11111222,99999999' 
WAVCIS,ioos:station:WAVCIS:CSI15:1,2011-06-07T11:00:00Z,28.8332,-90.8320,10.0,3.427,184.0,,'11111222,11111222,99999999' 
WAVCIS,ioos:station:WAVCIS:CSI15:1,2011-06-07T12:00:00Z,28.8332,-90.8320,10.0,4.422,215.0,,'11111222,11111222,99999999' 
WAVCIS,ioos:station:WAVCIS:CSI15:1,2011-06-07T13:00:00Z,28.8332,-90.8320,10.0,3.582,224.0,,'11111222,11111222,99999999' 
WAVCIS,ioos:station:WAVCIS:CSI15:1,2011-06-07T14:00:00Z,28.8332,-90.8320,10.0,3.175,239.0,,'11111222,11111222,99999999' 
WAVCIS,ioos:station:WAVCIS:CSI15:1,2011-06-07T15:00:00Z,28.8332,-90.8320,10.0,1.321,283.0,,'11111222,11111222,99999999' 
WAVCIS,ioos:station:WAVCIS:CSI15:1,2011-06-07T16:00:00Z,28.8332,-90.8320,10.0,0.997,258.0,,'11111222,11111222,99999999' 
WAVCIS,ioos:station:WAVCIS:CSI15:1,2011-06-07T17:00:00Z,28.8332,-90.8320,10.0,0.246,173.0,,'11111222,11111222,99999999' 
WAVCIS,ioos:station:WAVCIS:CSI15:1,2011-06-07T18:00:00Z,28.8332,-90.8320,10.0,0.323,117.0,,'11111222,11111222,99999999' 
WAVCIS,ioos:station:WAVCIS:CSI15:1,2011-06-07T19:00:00Z,28.8332,-90.8320,10.0,0.582,166.0,,'11111222,11111222,99999999' 
WAVCIS,ioos:station:WAVCIS:CSI15:1,2011-06-07T20:00:00Z,28.8332,-90.8320,10.0,1.041,113.0,,'11111222,11111222,99999999' 
WAVCIS,ioos:station:WAVCIS:CSI15:1,2011-06-07T21:00:00Z,28.8332,-90.8320,10.0,1.756,187.0,,'11111222,11111222,99999999' 
WAVCIS,ioos:station:WAVCIS:CSI15:1,2011-06-07T22:00:00Z,28.8332,-90.8320,10.0,3.359,194.0,,'11111222,11111222,99999999' 
WAVCIS,ioos:station:WAVCIS:CSI15:1,2011-06-07T23:00:00Z,28.8332,-90.8320,10.0,2.896,192.0,,'11111222,11111222,99999999' 
WAVCIS,ioos:station:WAVCIS:CSI15:1,2011-06-08T00:00:00Z,28.8332,-90.8320,10.0,3.274,167.0,,'11111222,11111222,99999999' 
WAVCIS,ioos:station:WAVCIS:CSI15:1,2011-06-08T01:00:00Z,28.8332,-90.8320,10.0,2.799,161.0,,'11111222,11111222,99999999' 
WAVCIS,ioos:station:WAVCIS:CSI15:1,2011-06-08T02:00:00Z,28.8332,-90.8320,10.0,2.24,143.0,,'11111222,11111222,99999999' 
WAVCIS,ioos:station:WAVCIS:CSI15:1,2011-06-08T03:00:00Z,28.8332,-90.8320,10.0,1.185,194.0,,'11111222,11111222,99999999' 
WAVCIS,ioos:station:WAVCIS:CSI15:1,2011-06-08T04:00:00Z,28.8332,-90.8320,10.0,0.409,194.0,,'11111222,11111222,99999999' 
WAVCIS,ioos:station:WAVCIS:CSI15:1,2011-06-08T05:00:00Z,28.8332,-90.8320,10.0,1.317,347.0,,'11111222,11111222,99999999' 
WAVCIS,ioos:station:WAVCIS:CSI15:1,2011-06-08T06:00:00Z,28.8332,-90.8320,10.0,7.26,17.0,,'11111222,11111222,99999999' 
WAVCIS,ioos:station:WAVCIS:CSI15:1,2011-06-08T07:00:00Z,28.8332,-90.8320,10.0,7.11,30.0,,'11111222,11111222,99999999' 
WAVCIS,ioos:station:WAVCIS:CSI15:1,2011-06-08T08:00:00Z,28.8332,-90.8320,10.0,6.482,57.0,,'11111222,11111222,99999999' 
WAVCIS,ioos:station:WAVCIS:CSI15:1,2011-06-08T09:00:00Z,28.8332,-90.8320,10.0,5.705,93.0,,'11111222,11111222,99999999' 
WAVCIS,ioos:station:WAVCIS:CSI15:1,2011-06-08T10:00:00Z,28.8332,-90.8320,10.0,6.261,101.0,,'11111222,11111222,99999999' 
WAVCIS,ioos:station:WAVCIS:CSI15:1,2011-06-08T11:00:00Z,28.8332,-90.8320,10.0,3.938,126.0,,'11111222,11111222,99999999' 
WAVCIS,ioos:station:WAVCIS:CSI15:1,2011-06-08T12:00:00Z,28.8332,-90.8320,10.0,3.406,140.0,,'11111222,11111222,99999999' 
WAVCIS,ioos:station:WAVCIS:CSI15:1,2011-06-08T13:00:00Z,28.8332,-90.8320,10.0,2.229,133.0,,'11111222,11111222,99999999' 
WAVCIS,ioos:station:WAVCIS:CSI15:1,2011-06-08T14:00:00Z,28.8332,-90.8320,10.0,1.237,130.0,,'11111222,11111222,99999999' 
WAVCIS,ioos:station:WAVCIS:CSI15:1,2011-06-08T15:00:00Z,28.8332,-90.8320,10.0,1.188,80.0,,'11111222,11111222,99999999' 
WAVCIS,ioos:station:WAVCIS:CSI15:1,2011-06-08T16:00:00Z,28.8332,-90.8320,10.0,1.395,64.0,,'11111222,11111222,99999999' 
WAVCIS,ioos:station:WAVCIS:CSI15:1,2011-06-08T17:00:00Z,28.8332,-90.8320,10.0,1.427,56.0,,'11111222,11111222,99999999' 
WAVCIS,ioos:station:WAVCIS:CSI15:1,2011-06-08T18:00:00Z,28.8332,-90.8320,10.0,3.036,91.0,,'11111222,11111222,99999999' 
WAVCIS,ioos:station:WAVCIS:CSI15:1,2011-06-08T19:00:00Z,28.8332,-90.8320,10.0,1.92,114.0,,'11111222,11111222,99999999' 
WAVCIS,ioos:station:WAVCIS:CSI15:1,2011-06-08T20:00:00Z,28.8332,-90.8320,10.0,2.906,126.0,,'11111222,11111222,99999999' 
WAVCIS,ioos:station:WAVCIS:CSI15:1,2011-06-08T21:00:00Z,28.8332,-90.8320,10.0,4.504,100.0,,'11111222,11111222,99999999' 
WAVCIS,ioos:station:WAVCIS:CSI15:1,2011-06-08T22:00:00Z,28.8332,-90.8320,10.0,5.519,102.0,,'11111222,11111222,99999999' 
WAVCIS,ioos:station:WAVCIS:CSI15:1,2011-06-08T23:00:00Z,28.8332,-90.8320,10.0,4.885,96.0,,'11111222,11111222,99999999' 
WAVCIS,ioos:station:WAVCIS:CSI15:1,2011-06-09T00:00:00Z,28.8332,-90.8320,10.0,5.964,92.0,,'11111222,11111222,99999999' 
WAVCIS,ioos:station:WAVCIS:CSI15:1,2011-06-09T01:00:00Z,28.8332,-90.8320,10.0,5.707,93.0,,'11111222,11111222,99999999' 
WAVCIS,ioos:station:WAVCIS:CSI15:1,2011-06-09T02:00:00Z,28.8332,-90.8320,10.0,6.507,105.0,,'11111222,11111222,99999999' 
WAVCIS,ioos:station:WAVCIS:CSI15:1,2011-06-09T03:00:00Z,28.8332,-90.8320,10.0,6.303,93.0,,'11111222,11111222,99999999' 
WAVCIS,ioos:station:WAVCIS:CSI15:1,2011-06-09T04:00:00Z,28.8332,-90.8320,10.0,6.609,89.0,,'11111222,11111222,99999999' 
WAVCIS,ioos:station:WAVCIS:CSI15:1,2011-06-09T05:00:00Z,28.8332,-90.8320,10.0,6.204,88.0,,'11111222,11111222,99999999' 